TimeAST,TemperatureF,Dew PointF,Humidity,Sea Level PressureIn,VisibilityMPH,Wind Direction,Wind SpeedMPH,Gust SpeedMPH,PrecipitationIn,Events,Conditions,WindDirDegrees,DateUTC
12:00 AM,78.8,71.6,78,30.06,6.2,ESE,13.8,-,N/A,,Partly Cloudy,120,2013-04-03 04:00:00
1:00 AM,78.8,71.6,78,30.04,6.2,ESE,11.5,-,N/A,,Partly Cloudy,120,2013-04-03 05:00:00
2:00 AM,78,71,74,30.02,19,ESE,9.2,,,,Scattered Clouds,120,2013-04-03 06:00:00
2:00 AM,78.8,71.6,78,30.01,6.2,ESE,9.2,-,N/A,,Partly Cloudy,120,2013-04-03 06:00:00
3:00 AM,78.8,71.6,78,30.01,6.2,SE,8.1,-,N/A,,Partly Cloudy,130,2013-04-03 07:00:00
4:00 AM,78.8,71.6,78,30.01,6.2,SE,8.1,-,N/A,,Scattered Clouds,130,2013-04-03 08:00:00
5:00 AM,78,71,72,30.03,19,ESE,9.2,,,,Scattered Clouds,120,2013-04-03 09:00:00
5:00 AM,78.8,71.6,78,30.01,6.2,ESE,9.2,-,N/A,,Partly Cloudy,120,2013-04-03 09:00:00
6:00 AM,78.8,71.6,78,30.04,6.2,SE,8.1,-,N/A,,Scattered Clouds,130,2013-04-03 10:00:00
7:00 AM,78.8,71.6,78,30.06,6.2,SE,10.4,-,N/A,,Scattered Clouds,130,2013-04-03 11:00:00
8:00 AM,80,71,68,30.09,19,ESE,9.2,,,,Partly Cloudy,120,2013-04-03 12:00:00
8:00 AM,80.6,71.6,74,30.09,6.2,ESE,9.2,-,N/A,,Scattered Clouds,120,2013-04-03 12:00:00
9:00 AM,80.6,71.6,74,30.09,6.2,ESE,11.5,-,N/A,,Scattered Clouds,120,2013-04-03 13:00:00
10:00 AM,84.2,71.6,66,30.12,6.2,SE,9.2,-,N/A,,Partly Cloudy,130,2013-04-03 14:00:00
11:00 AM,83,70,57,30.12,19,ESE,12.7,,,,Partly Cloudy,110,2013-04-03 15:00:00
11:00 AM,82.4,69.8,66,30.09,6.2,ESE,12.7,-,N/A,,Scattered Clouds,110,2013-04-03 15:00:00
12:00 PM,84.2,71.6,66,30.06,6.2,SE,11.5,-,N/A,,Partly Cloudy,130,2013-04-03 16:00:00
1:00 PM,82.4,71.6,70,30.06,6.2,SE,10.4,-,N/A,,Mostly Cloudy,130,2013-04-03 17:00:00
2:00 PM,83,71,60,30.05,25,SE,11.5,,,,Mostly Cloudy,130,2013-04-03 18:00:00
2:00 PM,82.4,71.6,70,30.04,6.2,SE,11.5,-,N/A,,Mostly Cloudy,130,2013-04-03 18:00:00
3:00 PM,84.2,71.6,66,30.01,6.2,SE,11.5,-,N/A,,Mostly Cloudy,140,2013-04-03 19:00:00
4:00 PM,82.4,69.8,66,30.01,6.2,ESE,11.5,-,N/A,,Partly Cloudy,110,2013-04-03 20:00:00
5:00 PM,82,71,62,30.02,25,ESE,11.5,,,,Partly Cloudy,120,2013-04-03 21:00:00
5:00 PM,82.4,71.6,70,30.01,6.2,ESE,10.4,-,N/A,,Scattered Clouds,110,2013-04-03 21:00:00
6:00 PM,80.6,71.6,74,30.01,6.2,ESE,9.2,-,N/A,,Scattered Clouds,110,2013-04-03 22:00:00
7:00 PM,78.8,71.6,78,30.04,6.2,East,10.4,-,N/A,,Mostly Cloudy,100,2013-04-03 23:00:00
8:00 PM,79,71,69,30.05,25,ESE,11.5,,,,Partly Cloudy,120,2013-04-04 00:00:00
8:00 PM,78.8,71.6,78,30.04,6.2,East,10.4,-,N/A,,Scattered Clouds,100,2013-04-04 00:00:00
9:00 PM,78.8,71.6,78,30.06,6.2,East,10.4,-,N/A,,Partly Cloudy,100,2013-04-04 01:00:00
10:00 PM,78.8,71.6,78,30.06,6.2,ESE,10.4,-,N/A,,Scattered Clouds,110,2013-04-04 02:00:00
11:00 PM,78,70,71,30.08,25,East,10.4,,,,Partly Cloudy,100,2013-04-04 03:00:00
11:00 PM,78.8,69.8,74,30.06,6.2,East,10.4,-,N/A,,Scattered Clouds,100,2013-04-04 03:00:00